TimeEDT,TemperatureF,Dew PointF,Humidity,Sea Level PressureIn,VisibilityMPH,Wind Direction,Wind SpeedMPH,Gust SpeedMPH,PrecipitationIn,Events,Conditions,WindDirDegrees,DateUTC
12:15 AM,53.6,51.1,91,29.91,10.0,SE,3.5,-,N/A,,Clear,130,2012-10-18 04:15:00
12:35 AM,59.5,54.7,84,29.89,10.0,Calm,Calm,-,N/A,,Clear,0,2012-10-18 04:35:00
12:55 AM,54.3,51.6,91,29.89,10.0,Calm,Calm,-,N/A,,Clear,0,2012-10-18 04:55:00
1:15 AM,54.5,52.9,94,29.89,10.0,Calm,Calm,-,N/A,,Clear,0,2012-10-18 05:15:00
1:35 AM,54.3,52.2,92,29.89,10.0,Calm,Calm,-,N/A,,Scattered Clouds,0,2012-10-18 05:35:00
1:55 AM,53.6,51.8,94,29.89,2.5,Calm,Calm,-,N/A,,Scattered Clouds,0,2012-10-18 05:55:00
2:15 AM,53.2,51.4,94,29.89,10.0,Calm,Calm,-,N/A,,Scattered Clouds,0,2012-10-18 06:15:00
2:35 AM,54.0,51.4,91,29.89,10.0,Calm,Calm,-,N/A,,Scattered Clouds,0,2012-10-18 06:35:00
2:55 AM,53.6,51.8,94,29.88,7.0,Calm,Calm,-,N/A,,Scattered Clouds,0,2012-10-18 06:55:00
3:15 AM,52.9,50.9,93,29.88,10.0,Calm,Calm,-,N/A,,Scattered Clouds,0,2012-10-18 07:15:00
3:35 AM,52.7,50.9,94,29.88,7.0,Calm,Calm,-,N/A,,Clear,0,2012-10-18 07:35:00
3:55 AM,53.6,51.8,94,29.87,7.0,Calm,Calm,-,N/A,,Clear,0,2012-10-18 07:55:00
4:15 AM,53.1,51.8,95,29.86,7.0,Calm,Calm,-,N/A,,Clear,0,2012-10-18 08:15:00
4:35 AM,52.2,50.5,94,29.86,4.0,Calm,Calm,-,N/A,,Scattered Clouds,0,2012-10-18 08:35:00
4:55 AM,51.8,50.2,94,29.88,7.0,NW,3.5,-,N/A,,Scattered Clouds,320,2012-10-18 08:55:00
5:15 AM,52.3,50.7,94,29.88,5.0,Calm,Calm,-,N/A,,Scattered Clouds,0,2012-10-18 09:15:00
5:35 AM,53.2,51.4,94,29.89,7.0,Calm,Calm,-,N/A,,Scattered Clouds,0,2012-10-18 09:35:00
5:55 AM,51.1,49.8,95,29.88,4.0,Calm,Calm,-,N/A,,Clear,0,2012-10-18 09:55:00
6:15 AM,52.9,51.6,95,29.87,7.0,SSE,3.5,-,N/A,,Clear,150,2012-10-18 10:15:00
6:35 AM,53.4,51.8,94,29.87,7.0,Calm,Calm,-,N/A,,Clear,0,2012-10-18 10:35:00
6:55 AM,52.2,51.1,96,29.88,2.0,Calm,Calm,-,N/A,,Scattered Clouds,0,2012-10-18 10:55:00
7:35 AM,52.0,50.9,96,29.90,0.2,Calm,Calm,-,N/A,Fog,Fog,0,2012-10-18 11:35:00
7:55 AM,53.6,52.5,96,29.89,0.2,Calm,Calm,-,N/A,Fog,Fog,0,2012-10-18 11:55:00
8:15 AM,55.9,54.9,96,29.89,3.0,Calm,Calm,-,N/A,,Overcast,0,2012-10-18 12:15:00
8:35 AM,55.8,54.5,96,29.90,0.8,Calm,Calm,-,N/A,,Overcast,0,2012-10-18 12:35:00
8:55 AM,56.3,55.2,96,29.91,3.0,Calm,Calm,-,N/A,,Overcast,0,2012-10-18 12:55:00
9:15 AM,58.6,57.0,94,29.90,5.0,Calm,Calm,-,N/A,,Overcast,0,2012-10-18 13:15:00
9:35 AM,61.7,59.2,91,29.89,7.0,SE,4.6,-,N/A,,Overcast,130,2012-10-18 13:35:00
9:55 AM,62.6,59.9,91,29.91,7.0,Calm,Calm,-,N/A,,Overcast,0,2012-10-18 13:55:00
10:15 AM,64.4,60.8,88,29.89,10.0,Calm,Calm,-,N/A,,Scattered Clouds,0,2012-10-18 14:15:00
10:35 AM,66.4,61.5,84,29.89,10.0,SSE,3.5,-,N/A,,Clear,150,2012-10-18 14:35:00
10:55 AM,68.4,62.1,80,29.89,10.0,South,4.6,-,N/A,,Clear,190,2012-10-18 14:55:00
11:15 AM,71.1,63.3,76,29.87,10.0,South,6.9,-,N/A,,Clear,180,2012-10-18 15:15:00
11:35 AM,72.0,63.5,75,29.87,10.0,South,4.6,-,N/A,,Clear,180,2012-10-18 15:35:00
11:55 AM,73.8,63.9,71,29.86,10.0,South,4.6,-,N/A,,Clear,170,2012-10-18 15:55:00
12:15 PM,74.8,64.2,69,29.86,10.0,South,5.8,-,N/A,,Clear,180,2012-10-18 16:15:00
12:35 PM,76.1,64.4,67,29.86,10.0,South,4.6,-,N/A,,Clear,190,2012-10-18 16:35:00
12:55 PM,77.5,63.1,61,29.86,10.0,WSW,6.9,-,N/A,,Clear,250,2012-10-18 16:55:00
1:15 PM,77.7,62.4,59,29.84,10.0,SSW,5.8,-,N/A,,Clear,200,2012-10-18 17:15:00
1:35 PM,78.6,61.9,56,29.85,10.0,SSW,8.1,-,N/A,,Clear,200,2012-10-18 17:35:00
1:55 PM,79.5,60.4,52,29.84,10.0,SW,6.9,-,N/A,,Clear,220,2012-10-18 17:55:00
2:15 PM,79.5,60.4,52,29.84,10.0,WSW,5.8,-,N/A,,Scattered Clouds,250,2012-10-18 18:15:00
2:35 PM,80.4,60.4,50,29.83,10.0,SSW,8.1,16.1,N/A,,Scattered Clouds,210,2012-10-18 18:35:00
2:55 PM,81.3,60.3,49,29.82,10.0,West,8.1,-,N/A,,Clear,260,2012-10-18 18:55:00
3:15 PM,81.3,60.6,49,29.83,10.0,WSW,9.2,-,N/A,,Scattered Clouds,250,2012-10-18 19:15:00
3:35 PM,80.6,61.2,51,29.84,10.0,WSW,9.2,-,N/A,,Overcast,250,2012-10-18 19:35:00
3:55 PM,80.1,62.1,54,29.84,10.0,WSW,5.8,-,N/A,,Overcast,250,2012-10-18 19:55:00
4:15 PM,81.0,62.6,53,29.83,10.0,West,5.8,-,N/A,,Mostly Cloudy,260,2012-10-18 20:15:00
4:35 PM,80.2,62.8,55,29.82,10.0,West,3.5,-,N/A,,Mostly Cloudy,270,2012-10-18 20:35:00
4:55 PM,80.6,62.8,54,29.82,10.0,West,4.6,-,N/A,,Scattered Clouds,260,2012-10-18 20:55:00
5:15 PM,79.2,63.7,59,29.82,10.0,WNW,3.5,-,N/A,,Mostly Cloudy,290,2012-10-18 21:15:00
5:35 PM,81.0,63.9,56,29.82,10.0,WNW,4.6,-,N/A,,Mostly Cloudy,300,2012-10-18 21:35:00
5:55 PM,78.4,63.5,60,29.83,10.0,West,4.6,-,N/A,,Overcast,260,2012-10-18 21:55:00
6:15 PM,77.5,63.9,63,29.83,10.0,West,3.5,-,N/A,,Overcast,270,2012-10-18 22:15:00
6:35 PM,77.0,63.7,63,29.83,10.0,West,3.5,-,N/A,,Overcast,260,2012-10-18 22:35:00
6:55 PM,76.5,63.7,64,29.84,10.0,Calm,Calm,-,N/A,,Overcast,0,2012-10-18 22:55:00
7:15 PM,76.1,63.7,65,29.83,10.0,Calm,Calm,-,N/A,,Overcast,0,2012-10-18 23:15:00
7:35 PM,73.8,64.4,72,29.84,10.0,Calm,Calm,-,N/A,,Mostly Cloudy,0,2012-10-18 23:35:00
7:55 PM,74.5,64.0,70,29.85,10.0,SSW,3.5,-,N/A,,Overcast,210,2012-10-18 23:55:00
8:15 PM,74.3,64.4,71,29.85,10.0,Calm,Calm,-,N/A,,Overcast,0,2012-10-19 00:15:00
8:35 PM,70.7,67.1,88,29.86,5.0,SW,5.8,-,N/A,Rain,Light Rain,220,2012-10-19 00:35:00
8:55 PM,70.0,67.6,92,29.86,5.0,SW,4.6,-,N/A,Rain,Light Rain,230,2012-10-19 00:55:00
9:15 PM,70.0,67.6,92,29.85,10.0,WSW,3.5,-,N/A,,Overcast,240,2012-10-19 01:15:00
9:35 PM,70.0,67.6,92,29.84,10.0,South,3.5,-,N/A,,Overcast,180,2012-10-19 01:35:00
9:55 PM,69.3,67.5,94,29.85,10.0,SSW,3.5,-,N/A,,Mostly Cloudy,200,2012-10-19 01:55:00
10:35 PM,69.8,67.5,92,29.86,10.0,Calm,Calm,-,N/A,,Overcast,0,2012-10-19 02:35:00
10:55 PM,69.8,67.6,93,29.86,10.0,Calm,Calm,-,N/A,,Overcast,0,2012-10-19 02:55:00
11:15 PM,69.8,67.6,93,29.87,10.0,SSW,4.6,-,N/A,,Light Drizzle,200,2012-10-19 03:15:00
11:35 PM,69.4,67.5,93,29.86,10.0,Calm,Calm,-,N/A,,Overcast,0,2012-10-19 03:35:00
11:55 PM,69.1,67.3,94,29.86,10.0,Calm,Calm,-,N/A,,Mostly Cloudy,0,2012-10-19 03:55:00